Weather History for Pawtucket, RI

Change the Weather History Date:

Friday, July 26, 2013

  Actual Average Record
Temperature  
Mean Temperature 64 °F -  
Max Temperature 69 °F 76 °F 91 °F (2005)
Min Temperature 59 °F 58 °F 51 °F (1997)
Degree Days  
Heating Degree Days 1    
Growing Degree Days 14 (Base 50)    
Moisture  
Dew Point 58 °F    
Average Humidity 85    
Maximum Humidity 88    
Minimum Humidity 77    
Precipitation  
Precipitation 0.34 in - - ()
Sea Level Pressure  
Sea Level Pressure 30.01 in    
Wind  
Wind Speed 10 mph (NNW)    
Max Wind Speed 15 mph    
Max Gust Speed 23 mph    
Visibility 9 miles    
Events      
Averages and records for this station are not official NWS values.
T = Trace of Precipitation, MM = Missing Value Source: NWS Daily Summary

Daily Weather History Graph

Daily Weather History Graph

Search for Another Location

Airport:

Trip Planner

Search our weather history database for the weather conditions in past years. The results will help you decide how hot, cold, wet, or windy it might be!

Date:

Astronomy

Jul. 26, 2013 Rise Set
Actual Time 5:33 AM EDT 8:10 PM EDT
Civil Twilight 5:01 AM EDT 8:42 PM EDT
Nautical Twilight 4:21 AM EDT 9:22 PM EDT
Astronomical Twilight 3:36 AM EDT 10:07 PM EDT
Moon 10:16 PM EDT (7/26) 10:12 AM EDT (7/26)
Length of Visible Light 15h 40m
Length of Day
14h 36m
Waning Gibbous, 80% of the Moon is Illuminated
Jul 26
Waning Gibbous
Jul 29
Last Quarter
Aug 6
New
Aug 14
First Quarter
Aug 20
Full

Hourly Weather History & Observations

Time (EDT) Temp. Dew Point Humidity Pressure Visibility Wind Dir Wind Speed Gust Speed Precip Events Conditions
12:15 AM 59.0 °F 55.4 °F 88% 30.06 in 10.0 mi North 12.7 mph - N/A   Overcast
12:35 AM 59.0 °F 55.4 °F 88% 30.06 in 10.0 mi North 11.5 mph - N/A   Overcast
12:55 AM 59.0 °F 55.4 °F 88% 30.05 in 10.0 mi North 11.5 mph 16.1 mph N/A   Overcast
1:15 AM 59.0 °F 55.4 °F 88% 30.05 in 10.0 mi North 11.5 mph - N/A   Overcast
1:35 AM 59.0 °F 55.4 °F 88% 30.05 in 10.0 mi North 10.4 mph - N/A   Overcast
1:55 AM 59.0 °F 55.4 °F 88% 30.05 in 10.0 mi North 11.5 mph - N/A   Overcast
2:15 AM 59.0 °F 55.4 °F 88% 30.04 in 10.0 mi North 11.5 mph - N/A   Overcast
2:35 AM 59.0 °F 55.4 °F 88% 30.03 in 10.0 mi North 10.4 mph - N/A   Overcast
2:55 AM 59.0 °F 55.4 °F 88% 30.02 in 10.0 mi North 11.5 mph - N/A   Overcast
3:15 AM 59.0 °F 55.4 °F 88% 30.02 in 10.0 mi North 10.4 mph - N/A   Overcast
3:35 AM 59.0 °F 55.4 °F 88% 30.01 in 10.0 mi North 11.5 mph 17.3 mph N/A   Overcast
3:55 AM 59.0 °F 55.4 °F 88% 30.01 in 10.0 mi North 12.7 mph 17.3 mph N/A   Overcast
4:15 AM 59.0 °F 55.4 °F 88% 30.01 in 9.0 mi NNE 11.5 mph - N/A   Overcast
4:35 AM 59.0 °F 55.4 °F 88% 30.01 in 10.0 mi North 11.5 mph - 0.01 in   Overcast
4:55 AM 59.0 °F 55.4 °F 88% 30.01 in 6.0 mi North 11.5 mph - 0.03 in   Overcast
5:15 AM 59.0 °F 55.4 °F 88% 30.01 in 8.0 mi North 11.5 mph 18.4 mph 0.04 in   Overcast
5:35 AM 59.0 °F 55.4 °F 88% 30.01 in 9.0 mi North 12.7 mph - 0.14 in   Overcast
5:55 AM 59.0 °F 55.4 °F 88% 30.00 in 8.0 mi North 12.7 mph 18.4 mph 0.16 in   Overcast
6:15 AM 60.8 °F 55.4 °F 82% 30.00 in 5.0 mi North 10.4 mph 16.1 mph 0.04 in   Overcast
6:35 AM 60.8 °F 55.4 °F 82% 30.00 in 5.0 mi North 12.7 mph 17.3 mph 0.07 in   Overcast
6:55 AM 60.8 °F 55.4 °F 82% 30.00 in 8.0 mi North 12.7 mph - 0.08 in   Overcast
7:15 AM 60.8 °F 55.4 °F 82% 29.99 in 6.0 mi North 10.4 mph 19.6 mph 0.03 in   Overcast
7:35 AM 60.8 °F 57.2 °F 88% 29.99 in 5.0 mi North 12.7 mph 17.3 mph 0.06 in   Overcast
7:56 AM 60.8 °F 57.2 °F 88% 29.99 in 8.0 mi North 12.7 mph 19.6 mph N/A   Overcast
8:15 AM 60.8 °F 57.2 °F 88% 29.99 in 5.0 mi North 12.7 mph 19.6 mph N/A   Overcast
8:35 AM 60.8 °F 57.2 °F 88% 29.99 in 5.0 mi North 13.8 mph 19.6 mph N/A   Overcast
8:55 AM 60.8 °F 57.2 °F 88% 29.99 in 9.0 mi North 11.5 mph - N/A   Overcast
9:15 AM 60.8 °F 57.2 °F 88% 29.99 in 9.0 mi North 11.5 mph 18.4 mph N/A   Overcast
9:35 AM 62.6 °F 57.2 °F 82% 29.99 in 10.0 mi North 12.7 mph - N/A   Overcast
9:55 AM 62.6 °F 57.2 °F 82% 29.99 in 10.0 mi North 12.7 mph 20.7 mph N/A   Overcast
10:15 AM 62.6 °F 57.2 °F 82% 29.99 in 10.0 mi North 12.7 mph - N/A   Overcast
10:35 AM 62.6 °F 57.2 °F 82% 29.99 in 10.0 mi North 12.7 mph - N/A   Overcast
10:55 AM 62.6 °F 59.0 °F 88% 29.99 in 10.0 mi NNW 9.2 mph 23.0 mph N/A   Overcast
11:15 AM 62.6 °F 59.0 °F 88% 29.99 in 10.0 mi North 11.5 mph 18.4 mph N/A   Overcast
11:35 AM 62.6 °F 59.0 °F 88% 29.98 in 10.0 mi North 12.7 mph 17.3 mph N/A   Overcast
11:55 AM 62.6 °F 59.0 °F 88% 29.98 in 10.0 mi North 12.7 mph 20.7 mph N/A   Overcast
12:15 PM 64.4 °F 60.8 °F 88% 29.98 in 10.0 mi North 10.4 mph 18.4 mph N/A   Overcast
12:35 PM 64.4 °F 60.8 °F 88% 29.98 in 10.0 mi North 11.5 mph 18.4 mph N/A   Overcast
12:55 PM 64.4 °F 60.8 °F 88% 29.97 in 10.0 mi NNW 15.0 mph 20.7 mph N/A   Overcast
1:15 PM 66.2 °F 60.8 °F 83% 29.97 in 10.0 mi NNW 11.5 mph 18.4 mph N/A   Overcast
1:35 PM 66.2 °F 62.6 °F 88% 29.98 in 10.0 mi NNW 10.4 mph - N/A   Overcast
1:55 PM 66.2 °F 60.8 °F 83% 29.98 in 10.0 mi NNW 10.4 mph - N/A   Overcast
2:15 PM 66.2 °F 62.6 °F 88% 29.98 in 10.0 mi NW 9.2 mph - N/A   Overcast
2:35 PM 68.0 °F 62.6 °F 83% 29.98 in 10.0 mi NW 9.2 mph - N/A   Overcast
2:55 PM 68.0 °F 62.6 °F 83% 29.99 in 10.0 mi NW 8.1 mph - N/A   Overcast
3:15 PM 69.8 °F 62.6 °F 78% 29.99 in 10.0 mi NW 10.4 mph - N/A   Overcast
3:35 PM 69.8 °F 62.6 °F 78% 29.98 in 10.0 mi NW 6.9 mph - N/A   Mostly Cloudy
4:15 PM 69.8 °F 62.6 °F 78% 29.99 in 10.0 mi WNW 5.8 mph - N/A   Mostly Cloudy
4:35 PM 69.8 °F 62.6 °F 78% 29.99 in 10.0 mi WNW 4.6 mph - N/A   Overcast
4:55 PM 69.8 °F 62.6 °F 78% 29.99 in 10.0 mi West 8.1 mph - N/A   Overcast
5:15 PM 66.2 °F 60.8 °F 83% 30.00 in 10.0 mi West 6.9 mph - N/A   Mostly Cloudy
5:35 PM 64.4 °F 60.8 °F 88% 30.00 in 9.0 mi West 3.5 mph - N/A   Mostly Cloudy
5:55 PM 64.4 °F 60.8 °F 88% 30.00 in 9.0 mi WSW 4.6 mph - 0.01 in   Mostly Cloudy
6:15 PM 64.4 °F 60.8 °F 88% 30.00 in 10.0 mi West 5.8 mph - N/A   Mostly Cloudy
6:35 PM 64.4 °F 60.8 °F 88% 30.00 in 10.0 mi Calm Calm - N/A   Mostly Cloudy
6:55 PM 64.4 °F 60.8 °F 88% 30.00 in 10.0 mi West 5.8 mph - N/A   Overcast
7:15 PM 64.4 °F 60.8 °F 88% 30.01 in 10.0 mi WNW 6.9 mph - N/A   Mostly Cloudy
7:35 PM 64.4 °F 59.0 °F 83% 30.01 in 10.0 mi WNW 5.8 mph - N/A   Mostly Cloudy
7:55 PM 64.4 °F 59.0 °F 83% 30.01 in 10.0 mi West 5.8 mph - N/A   Mostly Cloudy
8:15 PM 64.4 °F 59.0 °F 83% 30.01 in 10.0 mi West 5.8 mph - N/A   Overcast
8:35 PM 64.4 °F 57.2 °F 77% 30.02 in 10.0 mi West 6.9 mph - N/A   Overcast
8:55 PM 62.6 °F 57.2 °F 82% 30.02 in 10.0 mi West 3.5 mph - N/A   Mostly Cloudy
9:15 PM 62.6 °F 59.0 °F 88% 30.03 in 10.0 mi Calm Calm - N/A   Mostly Cloudy
9:35 PM 62.6 °F 57.2 °F 82% 30.04 in 10.0 mi Calm Calm - N/A   Mostly Cloudy
9:55 PM 60.8 °F 57.2 °F 88% 30.04 in 10.0 mi WSW 3.5 mph - N/A   Partly Cloudy
10:15 PM 60.8 °F 57.2 °F 88% 30.04 in 9.0 mi Calm Calm - N/A   Clear
10:35 PM 60.8 °F 55.4 °F 82% 30.05 in 9.0 mi SSW 3.5 mph - N/A   Clear
10:55 PM 60.8 °F 55.4 °F 82% 30.05 in 5.0 mi SW 3.5 mph - N/A   Clear
11:15 PM 60.8 °F 57.2 °F 88% 30.05 in 10.0 mi SW 3.5 mph - N/A   Clear
11:35 PM 60.8 °F 57.2 °F 88% 30.05 in 10.0 mi SW 3.5 mph - N/A   Clear
11:55 PM 60.8 °F 55.4 °F 82% 30.05 in 10.0 mi Calm Calm - N/A   Clear